Location: Piolenc
(44.1794°N, 4.7641°E)
Time: 04:49:53
(UTC+00:00)

CZ-4B R/B - Pass Details

Date: 27 January 2021
Orbit: 387 x 458 km, 97.6° (Epoch: 27 February)

Event Time Altitude Azimuth Distance (km) Brightness Sun altitude
Rises 04:54:56 0° 172° (S) 2,459 5.3 -23.1°
Reaches altitude 10° 04:56:58 10° 175° (S) 1,596 4.3 -22.7°
Enters shadow 04:57:49 17° 178° (S) 1,244 3.7 -22.6°
